Погода в Михайловске

Россия / Свердловская область     56°26′08″N   59°07′13″E
В апреле 2022 года жителям России запретили посещать сайт meteo.paraplan.net по решению Генеральной прокуратуры. Аудитория сайта уменьшилась в 10 раз. Владельцы сайта не видят смысла в поддержке погодного сервера в таких условиях. Сайт будет закрыт в октябре.
темп.,
°C
ветер,
м/с
пор.,
м/с
влажн.,
%
обл.,
%
осадки,
мм/ч
давл.,
гПа
погр.,
м
30 сентября, пт
пт3023:00−2вюв514825 0.0 1028505
02:00−3вюв413805 0.0 1028450
05:00−3вюв4128246 0.0 1029418
08:00−3вюв412845 0.0 1030453
11:00+2юв597130 0.0 1031678
14:00+4юв576869 0.0 1031926
17:00+4юв487246 0.0 1032829
20:00−2вюв298935 0.0 1033179
1 октября, сб
сб123:00−5всв129649 0.0 103425
02:00−5в11965 0.0 103423
05:00−5в11965 0.0 103418
08:00−3в12845 0.0 103351
11:00+4ююв23659 0.0 1032356
14:00+8ююв346294 0.0 1030644
17:00+7ююв137593 0.0 1030144
20:00+3юв1196100 0.0 103012
2 октября, вс
вс223:00+2юв119897 0.0 102931
02:000юв119842 0.0 102914
05:00−2вюв119891 0.0 102913
08:000юв12935 0.0 102850
11:00+9ю366539 0.0 1026364
14:00+12ю475383 0.0 1024848
17:00+11ю386538 0.0 1023273
20:00+6ююв238570 0.0 102455
3 октября, пн
пн323:00+6ююв278476 0.0 1024150
02:00+5ююв248480 0.0 102384
05:00+5ююв24845 0.0 102377
08:00+5ююв297988 0.0 1023190
11:00+11ююз4115699 0.0 1023609
14:00+12ююз4105667 0.0 1023588
17:00+13ююз4105899 0.0 1023529
20:00+8ююз2771100 0.0 1026128
4 октября, вт
вт423:00+9юз31074100 0.0 1027343
02:00+8ююз2675100 0.0 1027156
05:00+8ююз2570100 0.0 1028133
08:00+8ююз2269100 0.0 103037
11:00+10ююз256382 0.0 1031216
14:00+15юз24435 0.0 1031571
17:00+14ююз235541 0.0 103192
20:00+9юв11665 0.0 103310